Location: Marsån
(66.4167°N, 22.2833°E)
Time: 10:58:57
(UTC+00:00)

Cosmos 1570 Rocket - Pass Details

Date: 24 February 2024
Orbit: 762 x 785 km, 74.1° (Epoch: 16 April)

Event Time Altitude Azimuth Distance (km) Brightness Sun altitude
Rises 16:05:41 0° 313° (NW) 3,277 7.8 -4.9°
Reaches altitude 10° 16:08:06 10° 316° (NW) 2,343 7.0 -5.1°
Maximum altitude 16:13:26 71° 41° (NE) 825 4.1 -5.6°
Drops below altitude 10° 16:18:41 10° 125° (SE) 2,318 6.1 -6.2°
Sets 16:21:04 0° 128° (SE) 3,239 6.8 -6.4°
